User: anonymous   Login
Location: Unspecified
(0.0000°N, 0.0000°E)
Time: 06:13:29
(UTC+00:00)
Language:

HODOYOSHI 3 - Orbit

View from above orbital plane
View from above orbital plane
View from above satellite
View from above satellite

Ground track
Ground track

The orbit data is extracted from the following two-line orbital elements,

1 40015U 14033F   18116.70036139  .00000114  00000-0  22618-4 0  9996
2 40015  97.8403   7.3207 0036704 343.4967  16.5047 14.78367689207795
Epoch (UTC): 26 April 2018 16:48:31
Eccentricity: 0.0036704
inclination: 97.8403°
perigee height: 609 km
apogee height: 660 km
right ascension of ascending node: 7.3207°
argument of perigee: 343.4967°
revolutions per day: 14.78367689
mean anomaly at epoch: 16.5047°
orbit number at epoch: 20779

The dashed part of the orbit path shows where the satellite is in the earth's shadow,  

DLR